Tracking 18796 objects as of 20-September-2017
HD Live streaming from Space Station
objects crossing your sky now

COSMOS 785

Track COSMOS 785 now!
10-day predictions
COSMOS 785 is classified as:


NORAD ID: 8473
Int'l Code: 1975-116A
Perigee: 897.1 km
Apogee: 1,029.5 km
Inclination: 65.1 °
Period: 104.2 minutes
Semi major axis: 7334 km
RCS: 3.5974 m2 (large)
Launch date: December 12, 1975
Source: Commonwealth of Independent States (former USSR) (CIS)
Launch site: TYURATAM MISSILE AND SPACE COMPLEX (TTMTR)
aabbcc
Your satellite tracking list
Your tracking list is empty





NASA's NSSDC Master Catalog

Two Line Element Set (TLE):
1  8473U 75116A   17262.56558011 -.00000054 +00000-0 +30182-4 0  9999
2  8473 065.0766 295.0277 0090245 313.8206 045.5417 13.82170870107785
Source of the keplerian elements: AFSPC